Location: Härggis
(46.9540°N, 8.4897°E)
Time: 17:59:18
(UTC+00:00)

SL-16 R/B - Visible Passes

Search period start: 29 September 2022 00:00
Search period end: 09 October 2022 00:00
Orbit: 985 x 1006 km, 99.6° (Epoch: 29 September)

Date Brightness Start Highest point End Pass type
(mag) Time Alt. Az. Time Alt. Az. Time Alt. Az.
29 Sep 4.3 00:27:41 26° NNE 00:27:41 26° NNE 00:30:44 10° N visible
29 Sep 4.3 02:12:47 19° NW 02:12:47 19° NW 02:14:31 10° NNW visible
29 Sep 5.0 23:13:59 13° NE 23:13:59 13° NE 23:15:58 10° NNE visible
30 Sep 4.2 00:59:05 27° N 00:59:05 27° N 01:01:50 10° N visible
30 Sep 4.6 02:44:11 12° NW 02:44:11 12° NW 02:44:50 10° NW visible
30 Sep 4.8 23:45:23 18° NNE 23:45:23 18° NNE 23:47:58 10° N visible
01 Oct 4.2 01:30:29 24° NNW 01:30:29 24° NNW 01:32:44 10° NNW visible
02 Oct 4.5 00:16:47 22° NNE 00:16:47 22° NNE 00:19:23 10° N visible
02 Oct 4.4 02:01:53 18° NNW 02:01:53 18° NNW 02:03:27 10° NNW visible
02 Oct 5.2 23:03:05 11° NE 23:03:05 11° NE 23:03:49 10° NNE visible
03 Oct 4.4 00:48:11 24° N 00:48:11 24° N 00:50:34 10° N visible
03 Oct 4.6 02:33:18 12° NW 02:33:18 12° NW 02:33:53 10° NNW visible
03 Oct 5.0 23:34:29 15° NNE 23:34:29 15° NNE 23:36:27 10° NNE visible
04 Oct 4.4 01:19:35 22° NNW 01:19:35 22° NNW 01:21:32 10° NNW visible
05 Oct 4.8 00:05:54 19° NNE 00:05:54 19° NNE 00:08:02 10° N visible
05 Oct 4.5 01:51:00 17° NNW 01:51:00 17° NNW 01:52:20 10° NNW visible
06 Oct 4.6 00:37:18 20° N 00:37:18 20° N 00:39:16 10° N visible
06 Oct 4.7 02:22:24 12° NNW 02:22:24 12° NNW 02:22:53 10° NNW visible
06 Oct 5.1 23:23:36 13° NNE 23:23:36 13° NNE 23:24:51 10° NNE visible
07 Oct 4.6 01:08:42 19° N 01:08:42 19° N 01:10:19 10° N visible
07 Oct 4.9 23:55:01 16° NNE 23:55:01 16° NNE 23:56:37 10° N visible
08 Oct 4.7 01:40:07 16° NNW 01:40:07 16° NNW 01:41:11 10° NNW visible
